Wind_Speed
41 42 43 44 45 46 47 48 48 49 50 51 51 52 52 52 53 53 53 53 53 53 53 52 52 52 51 51 51 50 50 50 51 52 53 54 54 55 56 57 58 60 61 62 63 64 65 65 66 66 67 68 69 71 71 72 73 74 74 75 74 75 75 75 75 72 66 63 64 65 65 64 64 65 67 66 66 67 67 68 70 71 72 73 74
44 44 45 46 46 47 48 48 49 49 50 51 51 52 52 52 52 53 53 52 52 52 51 51 50 50 50 50 50 50 51 51 52 53 54 54 55 56 57 58 60 61 62 63 64 65 66 66 67 68 69 70 71 72 73 74 74 75 75 75 74 75 76 76 75 74 69 65 65 66 67 67 66 66 69 69 68 68 69 70 71 72 73 75 76
46 47 47 47 47 48 48 48 48 49 49 49 49 50 50 50 51 51 51 50 50 50 49 49 49 49 49 49 50 51 52 52 53 54 54 55 56 57 59 60 61 63 64 65 65 66 67 68 69 69 70 71 73 74 74 75 75 75 75 75 75 74 75 76 76 76 74 70 68 68 70 70 69 68 70 72 71 71 72 73 74 75 76 78 79
48 49 49 49 49 49 49 49 49 49 49 49 49 49 49 49 48 48 48 48 48 48 48 48 48 49 49 50 51 52 52 53 54 54 55 56 57 59 60 62 63 64 65 66 67 67 68 69 70 71 72 73 74 75 75 75 75 75 75 75 75 75 75 76 77 77 77 75 71 70 71 72 71 71 73 75 75 75 76 77 79 79 80 82 83
49 49 50 50 51 51 51 51 51 51 51 50 50 49 48 48 47 47 47 47 47 48 48 49 49 50 50 51 52 53 53 54 55 56 57 58 59 60 62 63 64 65 66 67 68 68 69 70 71 72 73 74 75 75 75 75 75 75 75 74 75 75 75 77 78 79 79 79 76 73 73 74 74 75 77 80 80 80 81 81 83 84 84 84 85
49 49 49 50 50 50 50 50 50 50 50 49 49 48 48 47 47 47 47 47 48 48 49 49 50 51 51 52 53 53 54 55 56 57 59 60 61 62 64 65 66 67 67 68 69 69 70 71 72 73 74 75 75 75 75 74 74 74 75 75 75 76 77 78 80 81 81 82 80 78 76 75 77 79 81 85 86 85 85 85 85 85 86 87 87
48 48 48 49 49 49 49 48 48 48 48 48 47 47 47 47 47 47 47 48 48 49 49 50 51 52 52 53 54 55 56 57 58 59 60 62 63 64 65 66 67 67 68 69 70 71 72 73 74 75 76 76 76 75 75 74 74 75 76 76 77 78 79 81 82 84 85 84 83 82 81 79 80 83 85 88 90 91 91 91 89 87 88 89 89
48 48 48 48 48 48 48 47 47 46 46 46 46 46 46 47 47 48 48 49 49 50 51 51 52 53 54 55 55 56 57 58 60 61 62 64 65 65 66 67 67 68 69 70 71 72 73 75 76 76 76 76 75 75 75 75 75 75 77 78 80 81 82 84 85 86 87 86 85 85 85 84 85 87 89 91 93 94 94 96 96 93 91 91 90
48 48 48 48 47 47 47 46 46 45 45 46 46 46 47 48 48 49 50 50 51 52 52 53 54 55 56 57 57 58 59 60 62 63 64 65 66 66 67 68 68 69 70 72 73 74 75 76 76 76 76 75 75 75 76 76 77 78 79 81 83 84 85 87 88 88 89 88 88 88 89 89 89 90 92 94 96 97 97 98 99 98 96 94 91
47 47 47 47 47 47 47 46 46 46 47 47 48 48 49 50 50 51 52 53 53 54 55 55 56 57 58 58 59 60 62 63 64 65 65 66 67 67 68 69 70 71 71 73 74 75 75 75 75 75 75 75 75 76 76 78 79 81 83 85 86 87 88 88 88 90 91 91 91 91 92 93 92 93 95 96 98 99 99 100 101 101 100 100 96
47 48 48 48 48 49 49 49 49 50 50 51 51 51 52 52 53 54 55 55 56 56 57 57 58 59 60 61 62 63 64 65 65 66 67 67 68 69 70 71 71 72 73 74 75 75 75 75 74 74 75 75 76 77 78 80 82 84 85 87 88 89 89 90 90 91 93 93 93 93 95 96 95 95 97 99 100 101 101 102 104 105 105 105 104
47 48 49 49 50 51 51 52 52 53 53 54 54 55 55 56 56 57 57 58 58 59 59 60 61 62 62 63 64 65 66 67 67 68 68 69 70 71 71 72 72 73 74 74 74 74 74 74 74 75 75 77 78 79 81 83 84 85 86 87 88 89 90 92 92 93 94 95 95 95 97 99 99 99 100 102 103 104 105 105 106 108 109 110 110
49 50 51 51 52 53 53 54 54 55 55 56 56 57 57 58 58 59 60 60 61 61 62 62 63 64 65 66 67 67 68 68 69 69 70 71 71 71 71 72 72 73 73 73 73 73 73 74 74 76 78 80 82 83 84 85 85 86 86 87 88 89 91 93 95 96 97 98 99 99 100 102 103 102 103 105 106 107 108 108 109 110 112 113 113
51 52 52 53 54 54 55 55 56 56 57 58 58 59 59 60 60 61 61 62 62 63 64 64 65 66 67 68 68 68 68 69 69 70 70 70 71 71 71 72 72 72 72 72 73 73 74 75 77 79 81 83 84 85 85 85 86 86 87 88 89 91 92 94 96 98 99 101 102 102 102 103 105 105 106 107 109 110 111 111 111 112 113 113 113
53 54 54 55 55 56 57 57 58 59 59 60 60 61 62 62 63 63 63 64 64 65 65 66 66 67 67 67 67 68 68 69 69 69 70 70 71 71 71 71 71 71 71 72 73 74 76 78 80 82 84 85 85 86 86 86 87 87 88 89 91 92 94 96 98 99 101 103 104 104 105 105 106 108 108 110 111 112 113 113 113 113 113 112 111
56 57 58 58 59 60 60 61 61 62 62 63 63 63 64 64 64 65 65 65 65 65 66 66 66 67 67 67 67 68 68 69 69 70 70 71 71 71 71 70 70 70 71 72 75 77 79 81 82 83 84 85 86 87 88 88 89 89 90 90 91 93 95 97 99 100 102 103 105 106 107 107 108 109 110 111 112 113 113 113 111 110 109 108 106
57 59 60 60 61 62 62 63 63 64 64 64 65 65 65 65 65 65 65 65 65 66 66 67 67 67 68 68 68 68 69 69 70 71 71 71 70 69 68 68 69 70 72 75 77 79 81 81 82 83 84 86 87 89 90 90 91 91 92 92 93 94 96 97 99 101 102 104 105 107 108 108 109 110 110 110 110 110 110 108 106 105 104 103 102
57 58 59 60 61 62 62 63 63 64 64 65 65 65 65 65 65 65 66 66 66 66 67 67 68 68 68 68 69 69 70 71 71 71 70 69 68 67 67 68 69 72 74 77 78 79 80 82 83 84 85 87 89 90 92 93 93 94 95 95 95 96 97 98 99 101 102 104 106 108 109 109 110 110 109 108 106 105 104 103 102 101 101 101 101
57 58 59 60 61 61 62 62 63 63 64 64 64 65 64 65 65 65 65 66 66 66 67 67 68 68 69 69 70 70 71 71 70 69 68 66 66 66 67 69 71 74 75 77 78 79 81 82 84 85 87 88 90 92 93 95 95 96 97 98 99 99 99 100 101 102 104 105 106 108 109 109 108 107 105 102 100 99 99 99 99 99 99 98 97
58 58 59 60 60 61 61 62 62 63 63 63 63 63 63 63 64 64 64 65 65 66 67 67 68 69 70 70 70 70 70 69 67 66 65 65 66 68 70 71 73 74 76 77 79 80 81 83 85 87 88 89 91 92 94 96 97 98 100 101 102 102 103 103 104 105 106 106 107 107 106 105 103 100 98 97 96 95 95 95 94 93 93 91 89
59 60 60 60 61 61 62 62 62 62 62 62 62 62 62 63 63 63 64 65 66 67 68 69 69 69 69 69 68 68 67 66 65 65 66 67 68 70 71 73 74 76 77 79 80 81 83 84 86 87 89 90 92 93 95 97 99 100 102 104 105 106 106 106 106 106 106 106 105 104 102 99 96 95 94 94 94 93 91 88 86 84 83 81 79
61 61 62 62 62 62 62 62 62 62 62 62 62 62 62 63 64 65 65 66 67 68 68 68 68 68 67 67 66 65 65 65 66 67 68 69 71 72 73 74 76 77 79 80 81 82 84 85 87 88 90 91 93 94 96 98 100 102 104 105 106 107 107 107 107 107 106 104 102 99 97 94 93 93 92 92 89 86 83 79 76 73 71 69 67
61 62 62 63 63 64 64 64 64 63 63 63 64 64 65 65 65 66 66 66 67 67 67 67 66 66 65 65 65 65 66 67 68 69 70 71 72 73 75 76 77 79 80 81 82 84 85 86 88 89 91 92 94 96 98 100 101 103 104 106 106 107 107 107 106 105 103 101 98 95 93 92 92 91 89 86 82 78 73 69 66 63 61 59 58
62 62 63 63 64 65 65 65 65 65 66 66 66 66 66 65 65 65 65 65 65 65 65 65 65 65 65 65 66 67 68 68 69 70 71 72 74 75 76 78 79 80 81 83 84 85 86 87 89 90 92 94 96 97 99 101 102 103 104 105 106 106 106 106 104 102 100 97 94 92 91 90 89 86 83 79 74 69 65 62 58 57 56 55 54
62 63 64 64 65 65 65 65 65 65 65 65 65 65 65 65 65 64 64 63 63 64 64 64 65 66 67 67 68 68 69 70 71 72 73 74 76 77 78 79 80 81 82 83 84 85 87 88 90 92 94 95 97 98 99 100 102 103 104 105 106 106 105 103 101 98 96 93 92 90 88 85 82 78 74 70 66 63 60 56 53 51 51 51 50
62 63 63 64 64 64 63 63 63 63 63 64 64 64 64 64 64 63 62 62 63 64 65 66 67 68 69 69 69 70 70 71 72 73 75 76 77 78 79 80 80 81 82 83 85 86 87 89 91 93 94 96 98 99 100 100 101 102 103 104 104 103 102 100 97 95 93 92 90 87 84 79 74 69 65 62 59 57 55 52 49 48 48 48 46
61 61 61 61 61 61 61 61 62 62 63 64 64 64 64 63 62 62 62 63 64 65 66 67 68 69 69 70 70 71 72 73 74 75 76 77 77 78 79 79 80 81 82 84 85 87 88 90 92 93 95 96 98 99 100 100 101 101 101 101 100 99 97 96 95 94 92 90 87 83 78 72 67 62 58 56 54 52 51 50 49 49 49 48 45
59 59 59 59 60 61 61 62 63 63 64 64 64 63 63 63 63 63 64 65 66 67 67 68 69 69 70 71 71 72 73 74 75 75 76 76 77 78 78 80 81 82 83 85 86 88 89 91 92 94 95 96 97 98 99 100 101 100 99 98 97 95 94 93 92 91 89 86 81 76 70 65 61 57 54 52 51 49 48 49 50 51 50 47 45
58 59 60 60 61 62 62 63 63 63 64 64 63 63 63 64 64 65 65 66 66 67 68 69 69 70 71 71 72 72 73 74 75 75 76 77 77 78 80 81 82 84 85 87 88 89 90 92 93 94 95 96 97 98 99 99 99 98 97 95 94 92 92 91 90 88 84 80 75 69 64 60 57 54 51 49 47 47 47 48 50 50 49 47 45
59 60 60 61 62 62 63 63 64 64 64 64 64 64 64 64 64 64 65 65 66 67 68 69 70 70 71 71 72 73 73 74 75 76 77 78 79 80 82 83 84 86 87 88 89 90 91 92 93 94 95 96 97 98 98 98 97 96 95 93 92 91 90 90 88 84 79 73 68 63 59 56 53 51 49 47 45 45 46 48 49 49 48 46 45
60 61 62 63 63 64 64 64 64 64 64 64 63 63 63 63 63 64 65 66 67 68 68 69 70 71 71 72 73 74 74 75 76 77 78 79 81 82 83 85 86 87 87 88 90 90 91 92 92 93 94 95 96 96 96 95 95 94 92 91 90 90 89 87 83 78 71 65 60 57 55 52 50 48 47 46 44 44 45 46 47 47 46 45 44
62 63 64 64 64 64 64 63 63 63 62 62 62 62 62 63 64 65 66 67 68 69 69 70 71 71 72 73 74 74 75 76 77 78 79 81 82 84 85 85 86 87 88 89 89 89 90 90 91 92 92 93 93 93 93 92 92 92 91 90 89 88 86 81 76 70 64 59 55 53 51 50 47 46 45 45 44 44 44 45 45 45 44 43 42
63 64 64 64 64 63 62 61 61 60 60 61 61 62 63 64 65 67 68 68 69 69 70 71 71 72 73 73 74 75 76 77 78 79 80 82 83 84 85 85 86 86 87 87 87 87 88 88 88 89 89 90 90 90 90 90 90 90 90 90 88 85 80 74 67 62 58 55 52 50 49 47 45 44 43 43 43 43 42 43 43 42 41 41 39
64 64 64 64 63 62 61 60 60 61 61 62 63 64 65 66 67 68 69 69 70 70 70 71 72 72 73 73 74 75 76 78 79 80 81 82 83 84 84 84 85 85 85 85 85 86 86 86 85 85 86 87 87 88 88 89 89 90 89 88 86 81 73 66 60 56 54 52 50 48 47 45 44 42 41 41 41 41 41 41 41 40 39 38 36
63 63 63 62 61 61 61 61 62 62 63 64 65 66 67 68 68 69 69 69 70 70 70 71 71 72 73 74 75 76 77 78 79 81 81 82 82 82 83 83 83 83 83 83 83 83 82 82 82 82 83 84 85 86 87 88 89 89 88 86 81 74 67 60 55 53 52 50 48 46 45 44 42 41 41 40 40 40 39 39 39 38 36 36 35
61 61 60 60 60 61 62 63 63 64 65 65 66 67 68 68 69 69 69 69 69 70 70 71 72 73 74 75 76 77 78 79 80 81 81 81 81 81 81 81 80 80 80 79 79 79 79 79 79 79 81 82 84 85 87 88 88 88 87 83 76 69 62 57 54 52 51 48 46 45 44 42 41 40 40 40 39 39 39 38 38 36 35 34 33
60 60 60 60 61 62 63 64 64 65 65 66 67 68 68 69 69 69 69 69 70 71 71 72 73 74 75 76 77 77 79 79 80 80 80 80 80 79 79 78 78 77 77 77 76 76 76 76 77 78 79 81 82 84 86 87 87 86 84 79 72 65 60 56 54 53 50 48 46 44 43 42 41 40 39 39 39 39 38 37 36 35 33 32 31
60 60 61 62 63 64 64 65 65 66 66 67 67 68 69 69 69 70 70 71 71 72 73 74 75 75 76 77 77 78 79 80 79 79 79 78 78 77 76 76 75 75 75 74 74 74 74 75 76 77 78 80 81 83 85 85 86 85 82 75 69 64 60 57 54 53 50 48 46 44 43 42 41 40 39 38 38 38 37 37 36 34 32 30 30
62 62 63 64 65 65 66 66 66 67 67 67 68 69 70 70 71 71 72 72 73 74 75 75 76 76 76 77 78 79 79 79 78 77 77 76 75 74 74 73 73 72 72 71 72 72 73 74 76 77 78 79 80 82 84 84 85 84 80 73 67 63 60 56 54 52 50 48 46 45 43 42 40 40 39 38 37 37 36 36 35 33 31 29 28
64 64 65 66 66 66 67 67 67 68 68 69 70 71 71 72 72 72 73 73 74 75 75 76 76 76 76 77 78 78 77 76 76 75 75 74 73 72 71 71 70 70 69 70 71 72 73 74 76 77 77 78 80 82 83 84 84 83 78 71 66 63 59 55 53 51 49 47 46 45 44 42 41 39 39 38 37 37 36 35 34 33 31 29 28
65 66 67 67 67 68 68 69 69 69 70 71 72 72 72 73 73 73 74 74 75 75 76 76 76 76 77 77 76 75 74 74 74 73 72 72 71 70 69 68 68 68 68 69 70 71 73 74 75 76 77 78 79 81 82 83 84 82 77 70 65 61 57 54 52 50 48 47 46 44 44 43 41 40 39 38 37 37 36 35 34 33 31 30 28
67 67 68 69 69 69 70 70 71 71 71 72 72 73 73 74 74 74 74 75 75 76 76 76 76 77 76 75 74 73 73 73 72 72 71 70 69 68 67 67 68 68 69 69 70 71 72 74 75 76 77 78 79 81 81 82 83 81 75 68 63 60 55 52 51 50 48 47 46 45 44 43 42 41 40 39 38 37 36 35 34 33 31 30 29
68 69 69 70 70 71 71 71 72 72 72 72 73 74 74 74 74 74 75 75 76 76 77 77 77 76 75 74 73 72 72 72 71 71 70 69 68 67 66 67 68 68 69 70 71 71 72 73 74 76 77 78 79 80 81 82 82 79 72 66 61 58 54 51 49 48 47 47 46 45 45 44 43 41 40 39 38 38 37 36 35 33 31 30 29
70 70 71 72 72 72 72 72 73 74 74 73 74 74 74 74 74 75 75 76 77 77 77 77 76 74 73 73 72 71 70 70 70 70 69 68 66 66 66 67 68 69 70 71 70 70 71 72 73 75 76 78 79 80 81 82 81 77 69 63 59 56 52 50 49 47 47 46 45 45 45 44 44 43 41 40 39 38 37 36 35 34 32 31 30
71 72 72 73 73 73 73 73 74 75 75 75 74 74 75 75 75 76 76 77 77 77 76 75 74 73 72 72 71 69 68 69 70 69 68 66 65 65 66 67 68 69 70 70 70 70 70 71 72 74 76 77 79 80 82 82 80 74 67 61 57 54 52 50 49 48 47 46 46 45 45 44 44 44 42 41 40 39 38 37 36 35 34 32 31
73 73 74 74 74 74 74 73 74 75 76 76 75 75 76 77 77 77 77 77 76 76 74 73 72 71 71 70 69 67 68 69 70 69 66 64 64 65 67 68 69 70 70 69 68 69 70 71 72 73 75 77 79 81 82 81 77 70 64 60 56 54 52 50 49 49 48 48 47 46 45 45 45 44 43 43 41 40 39 38 37 37 35 34 32
75 75 75 75 75 75 75 74 75 75 76 76 77 77 78 78 77 77 77 76 75 74 73 72 71 70 69 68 66 66 68 70 69 67 64 64 64 66 67 68 69 69 69 68 67 68 70 71 72 73 75 77 79 80 81 79 73 67 61 58 55 54 52 51 51 50 49 48 48 47 46 45 44 44 43 43 42 41 40 39 38 37 37 36 34
76 77 77 76 76 76 76 76 77 77 77 77 77 77 77 77 76 76 75 74 73 72 71 70 69 68 67 66 66 67 69 70 68 65 64 64 65 66 67 68 69 68 67 67 67 69 70 71 72 74 76 78 79 80 80 76 69 63 59 57 55 54 53 53 52 51 50 49 48 48 47 46 45 44 42 42 41 40 40 39 38 38 38 37 37
78 77 77 77 77 77 77 77 77 77 77 77 77 76 76 76 74 74 73 73 72 71 71 70 69 69 68 67 68 69 69 68 66 64 64 65 66 67 67 68 67 66 66 66 68 69 70 71 73 75 77 78 79 79 77 72 65 60 57 57 56 56 55 54 53 52 51 50 49 48 47 45 44 42 40 39 39 39 39 39 38 38 37 38 38
78 78 78 78 78 78 78 78 78 78 78 78 77 75 74 74 73 72 73 73 73 72 71 70 69 69 70 70 69 68 67 66 65 64 64 65 66 67 67 67 65 65 65 67 68 69 70 72 74 76 78 79 79 78 74 68 62 58 57 57 57 57 56 55 54 52 50 48 47 45 43 41 40 38 37 36 35 35 36 36 37 37 37 37 37
79 79 79 79 79 79 79 79 79 78 77 75 73 72 72 72 72 72 72 73 74 73 70 67 66 69 71 70 68 66 66 65 65 64 64 65 66 66 66 65 64 65 66 67 68 69 71 73 75 77 78 79 78 75 69 63 59 57 57 58 57 56 55 53 52 50 48 45 42 40 38 37 37 36 36 35 34 34 34 34 34 35 36 37 37
Wind_Direction
269 270 270 270 271 271 272 272 273 273 273 274 274 275 275 276 276 277 278 278 279 279 280 280 281 281 282 282 283 283 284 285 286 287 288 288 289 289 290 291 292 293 294 295 295 296 296 297 297 297 298 298 298 298 299 299 300 300 300 300 300 300 300 300 301 302 302 300 299 299 297 296 296 295 293 292 291 290 290 289 289 289 289 289 289
268 269 269 270 270 271 271 272 272 272 273 273 274 274 275 275 276 276 276 277 278 278 279 280 280 281 281 282 282 283 284 285 286 287 287 288 288 289 290 291 292 293 294 295 295 296 296 296 297 297 297 298 298 298 299 300 300 300 300 300 300 300 300 300 300 301 301 300 299 298 298 297 297 296 294 293 292 292 291 290 290 290 289 289 289
270 270 270 271 271 272 273 273 274 274 274 274 275 275 275 275 275 275 276 276 277 278 278 279 280 280 281 282 283 284 285 286 286 286 287 287 288 290 291 292 293 294 294 294 295 295 296 296 297 297 298 298 298 299 299 300 300 300 300 299 300 300 300 301 301 301 301 301 300 299 298 297 297 296 295 294 294 293 292 291 291 290 290 290 289
270 271 271 272 273 274 274 275 275 276 276 277 277 276 276 276 276 276 276 277 277 278 278 279 280 281 282 283 284 285 285 285 286 286 287 288 289 291 292 293 293 294 294 294 295 295 296 296 297 297 298 298 298 299 299 299 299 299 299 300 300 300 301 301 301 302 302 301 300 299 299 298 297 296 295 294 294 294 293 292 292 291 291 290 290
270 271 271 272 273 273 274 274 275 275 276 276 276 276 276 276 276 276 277 277 278 279 279 280 281 282 282 283 284 284 285 285 286 287 288 289 291 292 292 293 293 293 294 294 295 296 296 296 297 297 297 297 298 298 298 298 299 299 299 299 300 300 301 301 301 301 301 302 301 300 299 298 298 297 297 296 295 295 294 293 293 292 291 291 290
271 271 271 271 272 272 272 272 273 273 274 274 275 275 275 276 277 277 278 278 279 280 280 281 282 282 283 283 284 284 285 286 287 288 289 290 291 292 292 293 293 293 294 295 295 295 296 296 296 296 296 297 297 297 298 298 298 299 299 299 300 300 300 301 301 301 301 302 302 301 300 299 299 298 298 297 297 296 295 293 293 292 292 291 290
271 271 271 271 271 271 271 272 272 272 273 273 273 274 275 276 277 278 278 279 280 280 281 282 282 283 283 284 284 285 286 287 288 289 290 291 291 292 292 293 293 294 294 295 295 296 296 296 296 296 296 297 297 298 298 298 298 299 299 299 299 300 300 301 301 301 301 301 302 301 301 300 300 299 299 298 298 298 297 295 294 293 292 292 291
270 270 270 271 271 271 271 272 272 272 272 273 273 274 275 275 276 277 278 279 280 281 281 282 282 283 284 285 285 286 287 288 289 290 290 291 291 292 292 293 294 294 295 295 295 296 296 296 296 297 297 298 298 298 298 298 298 298 299 299 300 301 301 302 302 301 301 301 302 302 301 301 301 300 300 299 298 298 297 296 295 294 293 292 291
269 269 270 270 270 271 272 272 272 272 273 273 273 274 275 276 277 278 279 280 280 281 282 282 283 284 285 285 286 287 288 289 289 290 290 291 292 292 293 293 294 295 295 295 295 295 296 296 297 297 298 298 298 298 298 298 299 299 300 300 301 302 302 302 302 301 301 301 302 302 301 301 301 300 299 298 297 297 297 296 296 295 294 293 292
269 269 270 270 270 271 271 271 272 272 272 273 274 275 276 277 278 279 280 280 281 282 283 283 284 285 286 286 287 288 288 289 290 290 291 291 292 293 293 294 294 295 295 294 295 295 296 296 297 297 297 297 297 298 299 299 300 301 302 302 302 302 302 302 302 302 301 301 302 301 301 300 300 299 299 298 298 298 298 297 297 297 296 295 294
268 268 268 269 269 269 270 271 272 272 273 275 276 277 278 278 279 280 281 281 282 283 284 284 285 286 287 287 288 289 289 289 290 291 291 292 293 293 294 294 294 294 294 294 294 295 295 296 296 296 296 297 298 299 300 301 301 302 302 302 302 302 302 302 302 301 301 301 301 301 300 300 300 300 300 300 299 299 299 299 299 298 297 297 296
268 268 268 268 269 269 270 272 273 274 275 276 277 278 279 280 281 281 282 283 284 285 285 286 287 287 288 288 289 289 290 290 291 291 292 292 293 293 293 294 294 294 294 294 294 294 295 295 295 296 297 298 299 300 300 301 301 301 302 302 302 302 302 302 301 301 300 301 301 301 302 302 302 302 302 301 301 300 300 299 299 298 298 297 297
267 268 268 269 270 270 271 272 273 274 275 276 277 278 279 280 281 282 283 284 285 286 286 287 287 288 288 289 289 289 290 290 291 291 292 292 292 293 293 293 293 293 293 293 294 294 295 295 296 297 298 299 300 300 300 301 301 301 302 302 302 301 301 301 301 301 302 302 303 303 303 303 303 303 303 302 301 301 300 299 299 298 298 298 297
267 268 269 270 271 271 272 273 274 275 276 277 278 279 280 281 282 283 284 285 286 286 287 287 288 288 288 289 289 289 290 290 290 291 291 292 292 293 293 293 293 293 294 294 295 296 297 298 298 299 299 300 300 300 300 301 301 301 301 301 301 300 301 301 302 303 303 304 304 304 304 304 304 303 303 302 301 301 300 300 300 299 298 298 298
269 270 271 272 273 273 274 275 276 277 278 279 280 281 282 283 283 284 285 286 286 287 287 287 287 287 288 288 288 289 289 290 290 291 292 292 293 293 293 293 294 294 295 296 297 298 299 299 299 299 300 300 300 300 301 301 301 300 300 300 301 301 302 303 303 304 304 304 304 305 304 304 304 303 303 303 303 302 302 301 301 300 299 299 298
270 272 273 274 275 276 277 278 279 280 280 281 282 282 283 283 284 285 286 286 286 287 287 287 287 287 288 288 289 289 290 291 292 292 292 292 293 293 293 294 295 296 297 297 298 298 299 299 299 300 300 300 300 300 300 300 300 300 301 301 302 302 303 303 304 305 305 305 305 305 305 305 305 305 305 305 304 304 303 303 302 302 301 300 300
273 273 274 275 276 277 278 279 279 280 281 281 282 282 283 284 284 285 286 286 286 287 287 287 287 288 288 289 290 291 291 292 292 292 292 292 293 293 294 295 296 296 297 297 298 298 299 299 300 300 300 300 300 300 300 301 301 301 302 302 302 303 303 304 304 305 305 305 305 306 306 306 306 306 306 306 305 305 304 304 303 303 302 301 300
274 274 275 276 277 277 278 279 279 280 281 281 282 283 283 284 285 285 286 286 286 286 287 287 287 288 289 290 291 291 291 291 291 291 292 292 292 293 294 295 296 296 297 297 298 299 299 300 300 300 300 300 301 301 301 302 302 302 303 303 304 304 304 304 304 304 305 306 306 307 307 307 307 307 307 307 307 306 305 305 304 303 302 301 300
275 275 276 276 277 278 278 279 280 280 281 282 282 283 284 284 285 285 285 286 286 286 287 288 288 289 290 290 291 290 290 290 290 291 291 291 292 293 294 295 296 297 298 299 299 300 300 300 300 300 301 301 301 302 302 303 303 304 304 305 305 305 305 305 305 305 306 306 307 308 308 309 309 309 308 308 307 307 306 305 305 303 302 301 300
278 278 278 278 278 279 279 280 280 281 282 282 283 283 284 284 285 285 286 286 287 287 288 289 289 289 290 290 290 290 289 290 290 290 290 291 292 293 295 296 297 298 299 299 299 299 299 300 300 301 301 302 302 302 303 304 304 305 305 306 306 306 306 307 307 307 308 309 309 309 310 309 309 309 309 309 308 307 306 306 305 304 303 302 302
282 281 281 281 281 281 281 282 282 283 283 284 284 285 285 286 286 287 287 288 288 289 289 289 289 289 289 289 289 289 289 289 289 290 290 292 293 295 296 297 298 299 299 299 299 300 300 300 301 301 302 302 303 303 304 305 306 306 307 307 308 308 309 309 310 310 310 311 311 311 311 310 310 310 310 310 309 308 307 306 305 305 304 304 304
284 284 284 284 284 285 285 285 285 286 286 286 287 287 288 288 289 289 289 289 289 289 289 289 289 289 289 288 288 288 288 288 289 291 292 294 295 296 297 298 299 299 300 300 300 301 301 301 302 302 303 303 304 305 305 306 307 307 308 309 309 310 311 311 312 312 312 313 313 313 313 312 312 312 312 311 310 309 308 307 306 306 306 306 307
285 285 285 285 286 286 286 287 287 288 288 289 289 289 290 289 289 289 288 288 288 288 288 288 288 288 287 287 287 288 289 290 292 293 294 296 297 298 299 299 300 300 301 301 301 302 302 302 303 303 304 304 305 306 306 307 308 308 309 310 310 311 312 313 314 315 315 316 316 316 315 315 314 314 313 312 311 309 309 308 308 308 308 308 308
285 286 286 285 285 286 286 286 287 288 288 289 289 289 288 288 288 288 288 288 288 288 288 288 287 287 287 288 289 290 291 292 294 295 296 297 298 299 300 301 301 301 302 302 302 302 303 303 303 304 305 305 306 307 308 308 309 309 310 311 312 313 314 315 316 317 317 317 317 317 317 317 316 315 314 313 312 311 310 311 311 311 310 311 312
284 285 285 285 285 285 286 286 286 287 287 287 287 287 287 287 287 288 289 289 289 289 288 288 288 288 289 290 291 292 293 294 296 297 298 299 300 301 301 301 301 302 302 302 302 303 303 303 304 305 306 307 307 308 308 309 310 311 312 313 315 316 317 318 318 318 318 319 319 319 318 318 317 316 315 315 314 314 313 314 314 315 315 316 317
283 284 284 284 285 285 285 285 285 285 285 286 286 286 287 288 289 290 290 290 289 288 288 288 288 289 290 291 292 293 295 297 298 299 300 300 300 301 301 301 301 302 302 302 302 303 304 305 305 306 307 307 307 308 309 310 312 313 315 316 317 318 319 319 319 319 319 320 320 320 319 318 317 317 316 316 316 316 316 317 318 319 320 320 320
283 283 283 283 284 284 284 284 284 284 285 285 286 287 288 289 289 289 288 288 287 287 287 288 289 290 291 293 295 296 297 298 299 299 299 300 300 300 301 301 301 301 301 302 303 304 305 305 306 307 307 308 309 310 312 313 314 316 317 318 318 319 319 320 320 321 321 321 320 320 319 318 318 317 317 317 317 318 319 321 323 324 324 323 321
282 282 282 283 283 283 284 284 284 284 285 286 287 288 288 288 287 286 286 286 287 287 288 290 291 292 294 295 296 297 297 298 298 298 299 299 299 300 300 300 300 301 302 303 303 304 305 306 306 307 308 309 311 312 313 315 316 317 318 318 319 319 320 320 321 322 322 321 320 319 318 317 317 317 317 317 318 320 322 323 325 326 326 325 324
282 282 282 283 283 283 284 284 285 286 286 287 287 287 286 285 285 285 286 287 288 289 290 291 292 293 294 295 295 296 296 297 297 298 298 298 299 299 299 300 301 302 302 303 304 305 306 307 308 309 310 311 312 313 314 315 317 318 318 319 320 320 321 321 322 322 321 319 318 317 317 316 316 316 317 318 319 321 322 323 324 325 326 327 327
281 282 282 283 283 283 284 284 285 285 285 285 285 284 284 284 285 286 287 288 289 290 291 291 292 293 293 294 295 295 296 297 297 298 298 298 299 299 300 301 302 302 303 304 305 306 307 308 309 310 311 312 313 314 315 316 317 318 319 320 320 321 322 322 322 321 320 318 317 316 315 315 316 316 317 317 318 320 321 322 324 325 326 327 327
281 281 282 282 283 283 283 283 283 283 282 282 282 282 283 284 286 287 288 289 289 290 291 291 292 293 294 294 295 296 296 297 297 298 298 299 299 300 301 302 303 303 304 306 307 308 309 310 311 311 312 313 314 316 317 318 318 319 320 321 322 322 323 323 322 320 318 316 315 314 314 315 316 316 316 316 317 318 319 320 322 324 325 325 326
281 281 281 281 281 281 281 280 280 280 280 281 282 283 285 286 288 288 289 289 290 290 291 292 293 293 294 295 295 295 296 297 297 298 298 299 300 301 302 302 303 304 306 307 308 309 310 311 312 313 314 315 316 317 318 319 320 321 322 323 324 324 324 323 321 319 317 315 314 313 313 315 316 316 316 315 316 316 317 318 321 323 324 324 325
280 280 280 280 280 279 279 279 280 281 282 283 285 286 287 288 288 288 289 289 290 290 291 292 293 293 294 294 295 295 296 296 297 298 299 300 300 301 302 303 304 306 307 308 309 310 311 312 313 314 315 316 317 319 320 321 322 323 324 325 326 325 324 323 320 318 316 314 313 313 313 314 315 315 315 314 314 315 315 316 319 321 322 322 323
279 279 279 279 279 280 280 281 282 283 284 285 286 287 287 287 287 287 288 289 289 290 291 291 292 293 293 294 294 295 296 297 298 299 299 300 301 302 303 304 306 307 307 308 309 311 312 313 314 315 316 318 319 320 322 324 325 326 326 327 327 326 324 322 320 317 315 313 312 312 312 313 314 314 313 312 313 314 314 315 317 320 321 321 322
278 278 279 279 280 281 282 283 284 284 285 285 285 286 286 286 286 287 288 289 289 290 291 291 292 292 293 294 294 295 296 297 298 299 300 301 302 303 304 305 306 307 308 309 310 311 312 313 314 316 317 319 320 322 324 326 327 327 328 328 327 326 324 322 319 317 314 312 311 311 311 312 312 313 312 312 312 313 313 314 316 318 320 320 320
278 279 279 280 281 282 282 283 283 283 284 284 284 285 285 286 286 287 288 289 289 290 291 291 292 293 293 294 295 296 297 298 299 300 300 302 303 304 305 306 307 308 309 310 311 311 312 314 315 317 318 320 321 324 326 327 328 328 328 328 327 325 324 322 319 317 314 312 310 310 310 310 311 312 312 312 312 313 313 313 314 317 318 318 318
279 279 280 281 281 281 282 282 283 283 283 284 284 284 285 285 286 287 288 289 290 290 291 292 292 293 294 295 296 297 298 299 299 300 301 302 303 304 305 306 307 308 308 309 311 312 313 315 316 317 319 320 322 325 327 327 328 328 328 327 326 325 324 321 319 317 315 312 310 309 309 310 310 311 312 312 312 313 312 312 312 314 315 316 316
279 280 280 280 281 281 281 282 282 283 283 283 284 284 285 286 287 288 289 289 290 291 291 292 293 293 295 296 297 297 298 299 300 301 302 303 304 304 305 306 307 307 308 309 311 312 313 315 316 317 318 320 323 325 327 327 327 328 328 326 325 324 323 321 319 317 315 313 311 310 309 309 309 309 310 310 311 311 311 311 310 310 311 313 313
280 280 280 280 280 281 281 281 282 282 283 283 284 285 286 287 288 288 289 290 290 291 292 292 293 294 295 296 297 298 298 299 300 301 302 303 304 304 305 306 306 307 308 310 311 312 314 315 315 316 318 320 323 325 326 326 327 328 327 325 323 323 321 319 318 316 314 313 311 310 309 308 307 307 307 307 308 309 310 310 309 308 308 309 309
279 279 279 279 280 280 281 281 282 282 283 284 285 285 286 287 288 289 289 290 291 291 292 293 294 295 296 296 297 298 299 300 301 301 302 303 304 304 304 305 305 307 308 310 311 312 313 314 315 316 318 320 323 324 325 325 326 327 326 324 322 321 319 317 316 315 313 312 311 309 308 307 306 305 305 305 306 306 307 309 309 307 306 306 306
278 278 279 279 280 280 281 281 282 282 283 284 284 285 286 287 288 289 289 290 291 292 292 293 294 295 296 297 297 298 299 300 301 301 302 303 303 303 304 304 305 306 308 309 311 312 312 313 314 316 318 320 322 323 324 324 326 326 325 322 321 319 317 315 314 313 312 311 310 309 308 307 306 305 304 303 303 304 305 306 307 307 306 304 304
277 278 278 278 279 279 280 280 281 282 282 283 284 285 285 286 287 288 289 290 290 291 292 293 293 294 295 296 297 298 299 299 300 301 302 302 302 302 303 303 304 306 307 309 310 311 311 312 314 316 318 320 321 322 323 324 325 325 323 321 319 318 315 313 312 311 311 310 309 309 308 308 307 306 304 303 302 302 302 303 304 304 304 302 301
276 276 276 277 278 279 279 280 281 281 282 283 283 284 285 286 287 288 288 289 290 290 291 292 293 294 295 296 297 298 298 298 299 300 301 302 301 301 302 303 304 306 307 308 309 310 311 312 314 316 317 319 320 321 322 323 324 324 321 319 318 316 314 312 310 309 309 308 308 308 308 307 306 306 305 304 302 300 299 300 300 301 300 299 298
275 276 276 277 278 279 279 280 281 281 282 282 283 284 285 286 286 287 288 288 289 290 291 292 293 294 295 296 297 297 297 298 299 300 301 300 300 301 302 303 304 305 307 308 309 309 311 312 314 316 317 318 319 320 322 323 324 322 320 318 317 314 312 311 309 308 307 307 307 306 306 305 305 304 304 303 302 299 297 296 296 297 297 296 295
275 275 276 277 277 278 279 280 280 281 282 282 283 284 285 285 286 286 287 288 289 290 291 292 293 294 295 296 297 297 297 297 298 299 299 299 299 301 302 303 304 305 306 307 308 309 311 313 314 315 317 318 319 320 322 323 322 321 318 317 315 313 312 311 309 308 307 306 305 305 304 303 302 302 301 301 300 299 297 294 292 292 292 292 291
274 275 276 276 277 278 279 279 280 281 282 283 284 284 285 285 286 287 288 289 290 291 291 292 293 294 295 296 296 296 296 297 298 298 298 298 300 301 302 302 304 305 305 306 307 309 311 312 314 315 316 317 319 320 322 322 321 319 317 315 314 313 312 310 309 308 307 306 305 304 303 302 301 300 299 298 297 296 295 293 291 288 288 287 287
274 275 276 276 277 278 278 279 279 280 281 282 283 284 285 286 287 288 288 289 290 290 291 292 293 294 296 296 296 295 295 296 297 297 297 298 300 300 301 302 303 304 305 306 307 309 311 312 314 315 316 317 319 320 321 321 319 317 315 314 313 312 311 310 309 308 308 307 306 305 304 302 301 299 298 296 295 294 293 292 290 288 285 284 284
274 275 275 276 277 277 278 278 279 280 281 282 283 284 285 286 287 287 288 289 290 291 291 292 294 295 296 296 295 294 294 296 296 296 297 298 299 300 301 302 303 303 304 306 308 309 311 312 314 315 316 317 319 320 320 319 317 315 313 313 312 312 311 310 309 309 308 307 306 305 304 303 302 300 298 296 294 292 290 289 288 287 284 282 281
274 274 275 275 276 277 277 278 279 280 280 281 282 283 283 284 285 286 287 289 291 292 292 292 294 295 296 294 293 293 294 295 295 295 296 297 298 299 301 301 302 303 305 306 308 309 311 312 313 314 315 317 319 320 319 318 315 313 312 312 312 311 310 310 309 308 308 307 307 306 305 304 303 302 300 298 295 292 289 287 285 284 283 281 279
274 274 275 275 276 276 277 278 278 279 279 280 281 282 283 284 284 285 287 289 290 290 290 291 293 294 294 293 293 293 294 294 294 294 295 297 298 299 300 301 302 303 305 306 308 309 311 312 313 314 316 317 318 318 318 316 313 312 311 311 311 311 310 309 309 309 308 308 307 306 306 305 305 305 304 303 301 298 294 289 285 282 281 280 279
273 274 274 275 275 276 277 277 278 279 280 280 281 281 281 282 282 284 284 285 285 285 287 289 291 293 293 292 292 293 294 293 293 293 295 296 297 298 299 300 302 303 305 306 308 309 310 311 312 314 316 317 317 317 315 313 312 311 311 311 311 310 309 309 309 309 308 308 307 307 306 306 307 307 307 306 305 304 302 298 292 286 282 279 278
Height
5815 5814 5814 5814 5813 5813 5812 5811 5811 5809 5808 5807 5807 5806 5805 5804 5802 5801 5800 5799 5797 5796 5794 5793 5791 5790 5788 5787 5785 5783 5781 5779 5777 5776 5773 5771 5769 5766 5763 5761 5758 5755 5753 5750 5747 5744 5741 5738 5735 5732 5728 5725 5721 5717 5714 5710 5706 5702 5697 5693 5690 5683 5679 5677 5676 5682 5691 5689 5681 5678 5674 5670 5669 5664 5657 5656 5655 5650 5647 5644 5640 5637 5634 5631 5629
5809 5809 5808 5808 5808 5807 5806 5806 5805 5804 5803 5802 5801 5800 5799 5798 5796 5795 5794 5793 5791 5790 5788 5787 5785 5784 5782 5781 5779 5778 5776 5774 5772 5770 5768 5765 5763 5760 5758 5755 5752 5749 5746 5743 5741 5737 5734 5731 5728 5725 5722 5718 5713 5709 5706 5702 5698 5694 5690 5684 5682 5676 5669 5667 5665 5666 5674 5680 5676 5670 5664 5660 5659 5656 5648 5644 5645 5642 5638 5635 5631 5629 5626 5622 5620
5804 5803 5803 5802 5802 5801 5801 5800 5799 5798 5797 5796 5795 5794 5793 5792 5790 5789 5788 5786 5785 5784 5782 5781 5779 5778 5777 5775 5774 5772 5770 5768 5766 5764 5762 5759 5757 5754 5752 5749 5746 5743 5740 5737 5734 5731 5727 5724 5721 5718 5715 5710 5706 5701 5698 5694 5690 5686 5682 5676 5672 5669 5663 5657 5656 5654 5657 5665 5668 5662 5655 5651 5649 5646 5638 5634 5633 5631 5628 5625 5621 5619 5617 5612 5609
5798 5797 5797 5796 5796 5795 5794 5794 5793 5791 5790 5789 5788 5787 5786 5785 5784 5782 5781 5780 5779 5778 5777 5775 5774 5773 5771 5770 5768 5766 5764 5762 5760 5757 5755 5753 5751 5748 5745 5742 5739 5736 5733 5730 5727 5724 5720 5717 5713 5710 5707 5703 5698 5694 5690 5686 5682 5677 5674 5669 5664 5661 5657 5651 5647 5644 5643 5649 5655 5653 5647 5641 5639 5635 5628 5623 5622 5619 5617 5614 5611 5608 5607 5602 5597
5792 5792 5791 5790 5789 5789 5788 5787 5786 5785 5784 5783 5782 5781 5780 5779 5778 5777 5775 5774 5773 5772 5771 5770 5768 5767 5765 5764 5762 5760 5758 5755 5753 5751 5749 5747 5744 5742 5739 5735 5732 5729 5726 5723 5719 5716 5713 5709 5706 5702 5699 5695 5690 5686 5683 5678 5674 5670 5665 5662 5657 5653 5651 5645 5639 5636 5634 5634 5639 5642 5639 5632 5628 5624 5617 5610 5609 5608 5606 5603 5599 5595 5594 5592 5587
5786 5785 5785 5784 5783 5782 5781 5780 5780 5779 5778 5777 5776 5775 5774 5773 5772 5771 5770 5769 5767 5766 5765 5764 5762 5761 5759 5757 5755 5754 5752 5749 5747 5745 5742 5740 5737 5735 5731 5728 5725 5721 5718 5715 5712 5709 5705 5701 5698 5694 5689 5687 5683 5679 5675 5671 5667 5663 5658 5654 5650 5646 5643 5639 5633 5628 5626 5624 5624 5626 5627 5624 5618 5613 5606 5597 5593 5592 5592 5591 5590 5585 5580 5578 5576
5779 5778 5778 5777 5776 5776 5775 5774 5774 5773 5772 5771 5770 5769 5768 5767 5766 5765 5764 5763 5762 5761 5759 5758 5756 5754 5752 5751 5749 5748 5746 5743 5741 5738 5736 5733 5730 5727 5724 5721 5718 5714 5710 5707 5704 5700 5697 5693 5689 5685 5681 5677 5674 5670 5667 5664 5659 5655 5650 5646 5643 5639 5635 5631 5625 5620 5616 5615 5614 5612 5611 5612 5608 5601 5594 5586 5579 5576 5573 5570 5573 5576 5571 5565 5562
5773 5772 5771 5771 5770 5769 5769 5768 5768 5767 5767 5766 5765 5764 5763 5762 5761 5759 5758 5757 5756 5754 5753 5751 5749 5748 5746 5745 5743 5741 5740 5737 5735 5732 5729 5726 5723 5720 5717 5713 5710 5706 5702 5699 5695 5691 5688 5684 5680 5676 5672 5668 5665 5661 5658 5655 5652 5648 5642 5637 5634 5630 5626 5621 5616 5611 5606 5604 5603 5600 5597 5597 5596 5589 5582 5575 5566 5563 5560 5552 5550 5555 5557 5555 5552
5766 5766 5765 5765 5764 5764 5763 5763 5762 5762 5761 5760 5759 5758 5757 5756 5755 5754 5752 5751 5749 5748 5746 5745 5743 5741 5740 5738 5737 5735 5733 5730 5728 5725 5721 5719 5716 5712 5709 5706 5702 5699 5694 5689 5686 5682 5679 5675 5671 5667 5663 5660 5656 5653 5649 5645 5642 5639 5634 5628 5624 5620 5617 5612 5606 5600 5596 5593 5592 5589 5584 5583 5582 5576 5569 5564 5555 5549 5548 5541 5534 5534 5535 5535 5540
5761 5760 5760 5760 5759 5758 5758 5757 5757 5756 5755 5754 5753 5752 5751 5750 5749 5747 5746 5744 5743 5741 5740 5738 5736 5735 5733 5731 5730 5728 5725 5723 5720 5717 5714 5711 5708 5704 5701 5698 5694 5691 5687 5682 5677 5674 5670 5667 5663 5659 5655 5652 5648 5644 5641 5637 5632 5628 5623 5618 5613 5609 5605 5601 5596 5589 5583 5581 5581 5578 5572 5569 5569 5563 5555 5550 5543 5536 5533 5527 5519 5517 5515 5511 5517
5755 5755 5754 5754 5753 5752 5752 5751 5750 5750 5749 5748 5747 5746 5745 5743 5742 5740 5739 5737 5735 5734 5732 5731 5729 5727 5726 5724 5722 5720 5717 5715 5712 5709 5707 5703 5700 5696 5692 5689 5686 5682 5678 5675 5670 5667 5663 5659 5655 5651 5647 5644 5641 5637 5633 5629 5625 5619 5614 5608 5602 5597 5592 5588 5585 5580 5573 5569 5568 5566 5560 5554 5554 5551 5543 5535 5528 5523 5518 5512 5504 5499 5496 5490 5490
5749 5748 5748 5747 5747 5746 5745 5745 5744 5743 5742 5741 5740 5739 5737 5736 5735 5733 5731 5729 5728 5727 5725 5723 5721 5720 5718 5716 5714 5712 5709 5707 5704 5701 5698 5695 5691 5688 5684 5681 5677 5673 5670 5666 5662 5659 5656 5652 5648 5643 5639 5636 5632 5630 5626 5621 5617 5612 5607 5601 5594 5588 5582 5576 5571 5567 5563 5558 5556 5554 5548 5539 5536 5535 5528 5519 5512 5507 5502 5498 5491 5483 5476 5472 5467
5743 5743 5742 5741 5741 5740 5739 5738 5737 5736 5735 5734 5733 5732 5730 5729 5727 5726 5724 5722 5721 5719 5717 5715 5713 5712 5710 5708 5706 5703 5700 5698 5695 5692 5689 5686 5683 5680 5676 5673 5669 5665 5662 5658 5654 5651 5647 5644 5640 5635 5631 5627 5623 5620 5617 5613 5609 5604 5599 5593 5587 5581 5574 5567 5561 5555 5550 5545 5541 5541 5536 5526 5520 5518 5513 5503 5495 5490 5486 5481 5477 5469 5460 5454 5449
5737 5737 5736 5735 5735 5734 5733 5732 5731 5730 5728 5727 5726 5725 5723 5722 5720 5718 5717 5714 5713 5711 5709 5707 5705 5703 5702 5699 5697 5695 5692 5689 5686 5684 5680 5677 5674 5671 5668 5664 5661 5657 5653 5649 5645 5642 5638 5635 5631 5627 5622 5617 5613 5610 5607 5603 5600 5596 5591 5585 5579 5573 5566 5559 5552 5546 5539 5533 5527 5525 5523 5515 5506 5501 5497 5489 5479 5472 5467 5461 5458 5453 5444 5438 5434
5730 5730 5729 5728 5728 5727 5726 5725 5724 5723 5721 5720 5719 5717 5716 5714 5713 5711 5709 5707 5705 5703 5701 5699 5697 5695 5693 5691 5688 5686 5683 5680 5678 5675 5672 5669 5666 5662 5659 5656 5652 5648 5644 5640 5636 5633 5629 5625 5621 5617 5612 5607 5603 5599 5596 5593 5590 5586 5582 5577 5571 5564 5557 5549 5542 5537 5529 5522 5515 5510 5507 5502 5494 5486 5480 5473 5463 5455 5448 5442 5437 5430 5422 5418 5416
5723 5723 5722 5721 5720 5720 5719 5718 5717 5715 5714 5712 5711 5710 5708 5707 5705 5703 5701 5699 5697 5695 5693 5690 5688 5686 5684 5682 5680 5677 5674 5672 5669 5666 5663 5660 5657 5654 5650 5647 5644 5640 5636 5632 5628 5624 5620 5616 5611 5607 5602 5597 5592 5588 5584 5582 5579 5575 5572 5568 5562 5556 5549 5540 5533 5527 5519 5512 5505 5497 5491 5486 5479 5472 5465 5456 5446 5437 5429 5424 5419 5410 5400 5395 5394
5716 5716 5715 5714 5713 5712 5711 5710 5709 5707 5706 5704 5703 5701 5700 5698 5697 5695 5693 5691 5689 5686 5684 5682 5680 5678 5675 5673 5671 5669 5666 5663 5661 5658 5655 5652 5648 5645 5642 5639 5636 5632 5628 5623 5620 5615 5610 5606 5602 5597 5593 5587 5581 5577 5573 5570 5567 5563 5559 5557 5553 5548 5541 5534 5526 5518 5509 5501 5494 5486 5479 5472 5464 5458 5451 5442 5432 5421 5410 5405 5401 5394 5385 5378 5373
5709 5708 5707 5706 5705 5704 5703 5702 5701 5699 5698 5696 5694 5693 5691 5690 5688 5686 5684 5682 5680 5678 5676 5674 5671 5669 5667 5665 5663 5660 5657 5655 5652 5649 5646 5644 5641 5637 5635 5632 5628 5624 5620 5615 5611 5607 5602 5597 5592 5587 5583 5578 5571 5565 5560 5556 5554 5550 5546 5543 5540 5536 5531 5525 5519 5511 5503 5494 5485 5475 5466 5458 5449 5442 5435 5427 5419 5408 5397 5389 5384 5377 5370 5363 5356
5701 5700 5699 5698 5697 5696 5695 5694 5692 5691 5689 5688 5686 5684 5683 5681 5679 5678 5676 5674 5671 5669 5667 5665 5663 5661 5659 5657 5654 5651 5648 5646 5643 5641 5638 5636 5633 5630 5627 5625 5621 5616 5612 5607 5602 5598 5593 5588 5583 5578 5573 5568 5562 5555 5549 5543 5539 5536 5531 5527 5524 5521 5518 5513 5507 5500 5493 5486 5477 5466 5455 5445 5435 5427 5420 5413 5406 5396 5386 5377 5369 5361 5354 5348 5341
5693 5692 5691 5690 5689 5688 5687 5685 5684 5683 5681 5679 5678 5676 5674 5673 5671 5669 5667 5665 5663 5661 5658 5656 5654 5652 5650 5647 5645 5642 5640 5637 5635 5633 5630 5628 5625 5622 5619 5616 5613 5608 5603 5599 5594 5590 5585 5579 5574 5569 5563 5558 5552 5545 5539 5532 5526 5521 5516 5511 5507 5504 5501 5498 5492 5485 5478 5472 5464 5455 5445 5434 5425 5416 5408 5401 5393 5385 5376 5367 5358 5349 5340 5333 5327
5685 5684 5683 5682 5681 5680 5679 5677 5676 5674 5673 5671 5670 5668 5666 5664 5663 5661 5659 5657 5655 5652 5649 5647 5645 5643 5641 5639 5636 5634 5631 5629 5627 5624 5622 5619 5617 5614 5610 5607 5604 5600 5595 5590 5586 5581 5576 5570 5564 5559 5554 5548 5543 5536 5529 5522 5515 5508 5502 5496 5490 5486 5482 5478 5474 5469 5463 5456 5450 5442 5433 5423 5415 5407 5397 5388 5380 5371 5364 5356 5348 5340 5331 5323 5316
5677 5676 5675 5674 5673 5672 5671 5669 5668 5666 5665 5663 5661 5660 5658 5656 5654 5652 5650 5647 5645 5643 5640 5638 5636 5634 5632 5630 5628 5626 5623 5621 5618 5616 5613 5610 5607 5604 5601 5597 5594 5590 5586 5581 5576 5571 5566 5560 5554 5549 5543 5538 5532 5526 5519 5513 5506 5498 5490 5484 5477 5471 5466 5461 5456 5451 5446 5439 5433 5427 5419 5410 5402 5395 5386 5377 5368 5359 5352 5346 5339 5332 5325 5318 5310
5669 5669 5668 5667 5665 5664 5663 5661 5660 5658 5656 5655 5653 5651 5649 5647 5645 5643 5641 5638 5636 5634 5631 5629 5627 5625 5624 5622 5620 5618 5615 5613 5610 5607 5604 5601 5598 5594 5591 5587 5584 5580 5576 5571 5566 5561 5556 5550 5544 5538 5533 5527 5522 5515 5509 5503 5496 5488 5481 5474 5467 5460 5454 5447 5440 5434 5428 5421 5414 5409 5402 5394 5387 5381 5373 5365 5358 5350 5343 5337 5331 5325 5319 5314 5308
5661 5660 5659 5658 5657 5656 5655 5653 5651 5650 5648 5646 5644 5642 5640 5639 5636 5634 5632 5630 5628 5625 5623 5621 5619 5617 5616 5614 5612 5609 5606 5604 5601 5598 5594 5591 5588 5584 5580 5576 5573 5569 5564 5560 5556 5551 5546 5540 5534 5528 5523 5517 5511 5505 5499 5492 5485 5478 5471 5463 5456 5449 5441 5433 5426 5419 5412 5405 5399 5393 5387 5380 5373 5365 5359 5352 5346 5340 5335 5330 5324 5318 5313 5308 5303
5653 5652 5651 5650 5648 5647 5646 5645 5643 5641 5640 5638 5636 5634 5632 5630 5628 5626 5624 5622 5620 5617 5615 5613 5611 5609 5607 5605 5603 5600 5597 5594 5591 5588 5585 5581 5578 5574 5570 5566 5562 5558 5554 5550 5545 5541 5536 5531 5525 5519 5513 5507 5501 5495 5489 5483 5475 5467 5459 5450 5442 5434 5427 5420 5413 5407 5400 5394 5387 5381 5374 5367 5361 5353 5346 5341 5335 5330 5326 5323 5319 5313 5308 5303 5299
5645 5644 5643 5642 5640 5639 5638 5637 5635 5633 5632 5630 5628 5626 5624 5623 5621 5619 5617 5615 5613 5610 5608 5605 5603 5600 5598 5596 5593 5591 5588 5585 5582 5579 5575 5571 5568 5564 5560 5556 5552 5548 5544 5540 5535 5531 5526 5521 5516 5510 5504 5498 5492 5485 5479 5473 5465 5456 5447 5438 5430 5422 5414 5408 5401 5395 5389 5383 5376 5369 5362 5356 5351 5345 5338 5332 5327 5322 5317 5315 5313 5309 5303 5299 5296
5637 5636 5635 5634 5633 5631 5630 5629 5627 5625 5624 5622 5620 5619 5617 5615 5613 5611 5610 5608 5605 5602 5600 5597 5594 5592 5589 5587 5584 5581 5579 5576 5572 5569 5566 5562 5558 5555 5551 5547 5543 5539 5535 5531 5526 5521 5516 5511 5506 5500 5494 5488 5480 5473 5466 5459 5453 5445 5437 5429 5421 5413 5406 5398 5391 5383 5377 5371 5365 5359 5353 5347 5342 5338 5333 5327 5322 5317 5312 5308 5305 5302 5298 5294 5290
5629 5628 5627 5626 5625 5624 5622 5621 5619 5618 5616 5614 5612 5611 5609 5607 5605 5604 5602 5600 5597 5594 5591 5589 5586 5583 5580 5577 5575 5572 5569 5567 5564 5560 5557 5553 5550 5546 5542 5538 5534 5530 5526 5521 5517 5512 5507 5501 5496 5490 5484 5477 5470 5462 5455 5447 5440 5434 5427 5420 5413 5406 5399 5391 5383 5375 5367 5360 5355 5350 5345 5341 5336 5331 5327 5323 5317 5312 5308 5304 5300 5297 5293 5289 5285
5620 5620 5619 5618 5617 5615 5614 5612 5611 5609 5608 5606 5604 5602 5601 5599 5597 5595 5593 5591 5589 5586 5583 5580 5577 5574 5571 5569 5566 5563 5560 5557 5554 5551 5548 5544 5541 5537 5533 5529 5525 5520 5515 5511 5506 5501 5496 5490 5485 5479 5472 5466 5460 5453 5446 5439 5432 5425 5418 5411 5404 5397 5390 5383 5377 5369 5361 5354 5348 5343 5338 5335 5330 5326 5322 5318 5314 5309 5304 5301 5297 5293 5289 5285 5280
5613 5612 5611 5610 5608 5607 5606 5604 5602 5601 5599 5597 5596 5594 5592 5590 5588 5587 5585 5583 5580 5577 5574 5571 5568 5565 5562 5560 5557 5554 5551 5548 5545 5541 5538 5534 5530 5527 5523 5518 5514 5509 5504 5499 5495 5490 5484 5478 5472 5466 5460 5455 5449 5442 5436 5430 5424 5417 5410 5403 5396 5389 5382 5375 5368 5361 5355 5348 5342 5337 5332 5329 5325 5321 5317 5314 5310 5306 5301 5297 5293 5289 5285 5282 5278
5605 5604 5603 5601 5600 5599 5597 5596 5594 5592 5590 5589 5587 5585 5584 5582 5580 5578 5576 5574 5571 5568 5565 5562 5559 5557 5554 5551 5548 5545 5542 5539 5536 5532 5528 5524 5520 5516 5512 5508 5503 5498 5494 5489 5483 5478 5472 5466 5460 5455 5449 5443 5437 5431 5425 5419 5413 5408 5402 5396 5388 5380 5373 5367 5359 5353 5347 5342 5336 5331 5327 5323 5319 5316 5312 5308 5305 5302 5298 5294 5290 5286 5282 5278 5274
5597 5596 5594 5593 5592 5590 5589 5587 5585 5584 5582 5581 5579 5577 5576 5574 5572 5570 5567 5565 5562 5559 5557 5554 5551 5548 5545 5542 5539 5536 5533 5530 5527 5523 5519 5515 5510 5506 5502 5497 5493 5488 5483 5478 5472 5466 5461 5455 5449 5444 5438 5432 5427 5421 5415 5410 5404 5398 5392 5386 5380 5372 5364 5358 5351 5345 5339 5335 5331 5326 5322 5318 5315 5311 5307 5304 5301 5298 5295 5291 5288 5284 5280 5276 5272
5588 5587 5585 5584 5583 5581 5580 5579 5577 5575 5574 5572 5571 5569 5567 5565 5563 5561 5558 5556 5553 5551 5548 5546 5543 5540 5536 5533 5530 5526 5523 5520 5517 5513 5509 5505 5500 5496 5491 5487 5482 5477 5472 5466 5461 5456 5450 5444 5439 5433 5428 5423 5418 5412 5407 5401 5395 5388 5382 5376 5370 5363 5356 5349 5343 5338 5333 5328 5324 5321 5317 5313 5310 5307 5304 5300 5297 5294 5291 5288 5285 5281 5278 5274 5270
5579 5577 5576 5575 5574 5572 5571 5570 5568 5567 5565 5564 5562 5560 5558 5556 5554 5552 5550 5547 5545 5542 5540 5537 5534 5531 5528 5524 5521 5517 5514 5510 5507 5503 5499 5495 5490 5486 5481 5476 5472 5467 5462 5457 5451 5446 5441 5436 5430 5425 5420 5414 5409 5404 5398 5392 5386 5379 5373 5366 5360 5354 5348 5342 5337 5332 5327 5323 5319 5316 5312 5309 5306 5303 5300 5297 5293 5290 5287 5284 5281 5278 5275 5272 5268
5569 5568 5567 5566 5565 5563 5562 5561 5559 5558 5556 5554 5553 5551 5549 5547 5545 5543 5541 5539 5536 5533 5531 5528 5525 5522 5519 5515 5512 5508 5504 5501 5497 5493 5489 5485 5480 5475 5471 5466 5461 5456 5451 5446 5441 5437 5433 5428 5423 5418 5413 5407 5402 5396 5390 5384 5377 5371 5364 5358 5352 5346 5340 5335 5331 5327 5322 5319 5315 5312 5308 5305 5301 5299 5296 5293 5290 5287 5284 5281 5278 5275 5272 5270 5266
5560 5558 5557 5556 5555 5554 5553 5551 5550 5549 5547 5545 5543 5541 5539 5537 5536 5534 5532 5529 5527 5524 5521 5518 5515 5512 5509 5505 5502 5498 5494 5490 5486 5482 5478 5474 5470 5466 5461 5456 5452 5447 5442 5438 5433 5428 5424 5420 5415 5411 5406 5400 5395 5389 5383 5377 5370 5363 5356 5350 5344 5339 5334 5329 5325 5321 5317 5314 5310 5307 5304 5300 5297 5295 5292 5289 5285 5283 5280 5278 5275 5272 5269 5267 5264
5550 5549 5548 5547 5546 5544 5543 5542 5540 5539 5538 5536 5534 5532 5530 5528 5526 5524 5522 5520 5517 5515 5512 5509 5506 5502 5498 5495 5491 5487 5483 5479 5475 5471 5468 5464 5460 5456 5452 5447 5443 5439 5435 5431 5426 5421 5416 5412 5407 5403 5398 5393 5388 5382 5376 5370 5363 5357 5350 5343 5337 5332 5327 5323 5319 5315 5312 5309 5305 5302 5299 5296 5293 5290 5288 5285 5282 5279 5276 5274 5272 5269 5267 5264 5262
5541 5540 5539 5538 5536 5535 5534 5532 5531 5530 5529 5527 5525 5523 5521 5519 5517 5515 5512 5510 5508 5505 5503 5500 5496 5493 5489 5485 5481 5478 5474 5469 5466 5462 5458 5454 5450 5446 5443 5439 5435 5431 5427 5423 5419 5414 5409 5404 5400 5395 5390 5386 5381 5375 5370 5364 5357 5351 5344 5338 5331 5326 5321 5317 5313 5309 5306 5303 5300 5297 5294 5291 5288 5286 5284 5281 5278 5275 5273 5271 5269 5267 5264 5262 5259
5532 5531 5529 5528 5527 5526 5525 5523 5522 5520 5519 5517 5515 5513 5511 5509 5506 5504 5502 5500 5497 5494 5492 5489 5486 5483 5479 5475 5471 5468 5463 5459 5456 5452 5449 5445 5441 5438 5434 5430 5427 5423 5420 5416 5411 5407 5402 5397 5393 5388 5383 5378 5373 5368 5362 5357 5351 5344 5338 5332 5327 5321 5316 5312 5308 5305 5301 5298 5295 5292 5289 5287 5284 5282 5279 5277 5275 5272 5269 5267 5265 5263 5261 5259 5257
5522 5521 5520 5519 5518 5517 5515 5514 5512 5511 5509 5507 5505 5503 5501 5498 5496 5494 5491 5489 5486 5483 5480 5478 5475 5471 5468 5465 5461 5457 5453 5449 5446 5443 5439 5436 5432 5429 5426 5422 5419 5416 5412 5408 5404 5400 5395 5390 5385 5380 5376 5371 5366 5361 5355 5350 5344 5338 5331 5326 5321 5316 5311 5307 5303 5300 5296 5293 5290 5287 5285 5282 5280 5278 5275 5272 5270 5268 5266 5263 5261 5259 5257 5256 5254
5513 5511 5511 5510 5508 5507 5506 5504 5503 5501 5499 5497 5496 5494 5491 5489 5486 5484 5481 5478 5475 5472 5470 5467 5464 5461 5458 5454 5450 5447 5443 5440 5436 5433 5430 5427 5423 5420 5417 5414 5411 5407 5404 5401 5397 5393 5388 5382 5377 5372 5368 5363 5359 5354 5348 5343 5337 5331 5325 5319 5315 5310 5306 5301 5298 5294 5291 5288 5285 5282 5280 5277 5275 5273 5271 5268 5266 5264 5261 5259 5257 5255 5253 5252 5251
5503 5502 5501 5500 5498 5497 5496 5495 5493 5492 5490 5488 5486 5484 5481 5479 5477 5474 5472 5469 5465 5463 5460 5457 5455 5451 5448 5445 5442 5438 5434 5431 5428 5424 5421 5418 5415 5412 5408 5405 5402 5399 5396 5393 5390 5386 5381 5375 5370 5364 5360 5356 5351 5346 5341 5336 5330 5324 5319 5313 5309 5304 5300 5296 5293 5289 5286 5283 5280 5277 5274 5272 5270 5268 5266 5264 5261 5259 5257 5255 5253 5251 5250 5248 5247
5493 5492 5491 5490 5489 5488 5487 5485 5483 5481 5480 5478 5476 5473 5472 5470 5467 5465 5462 5459 5456 5453 5450 5447 5445 5442 5438 5435 5433 5429 5426 5423 5419 5416 5413 5410 5406 5403 5400 5397 5394 5391 5388 5385 5382 5378 5374 5369 5363 5357 5352 5348 5343 5339 5334 5328 5323 5318 5313 5308 5303 5298 5295 5291 5288 5284 5281 5278 5275 5272 5269 5267 5265 5262 5260 5258 5256 5254 5252 5251 5249 5247 5246 5244 5243
5483 5482 5481 5480 5479 5478 5476 5475 5473 5471 5469 5467 5465 5463 5462 5460 5457 5454 5452 5449 5446 5443 5440 5437 5434 5432 5429 5426 5423 5420 5417 5414 5411 5408 5405 5401 5398 5395 5391 5388 5385 5382 5379 5376 5373 5370 5366 5362 5356 5351 5345 5340 5335 5330 5325 5320 5315 5310 5306 5301 5297 5292 5289 5286 5282 5279 5276 5273 5270 5267 5264 5261 5259 5257 5255 5253 5251 5249 5248 5246 5244 5243 5241 5240 5239
5474 5472 5471 5470 5469 5467 5466 5464 5462 5459 5457 5456 5455 5453 5451 5449 5446 5444 5441 5438 5435 5432 5429 5427 5424 5422 5419 5417 5414 5411 5408 5405 5402 5400 5397 5393 5390 5387 5383 5380 5377 5374 5371 5368 5364 5361 5358 5354 5349 5344 5339 5332 5327 5321 5316 5311 5306 5301 5297 5294 5290 5286 5283 5279 5276 5273 5270 5268 5265 5262 5259 5256 5254 5251 5249 5248 5246 5244 5243 5241 5239 5238 5237 5236 5234
5463 5462 5460 5459 5458 5456 5455 5453 5451 5448 5446 5444 5443 5442 5439 5437 5435 5432 5430 5427 5424 5421 5419 5416 5414 5411 5409 5407 5404 5402 5399 5396 5394 5391 5388 5385 5382 5378 5375 5372 5369 5365 5362 5360 5357 5353 5349 5346 5342 5337 5332 5326 5320 5313 5308 5302 5297 5293 5289 5285 5282 5279 5276 5273 5270 5267 5264 5261 5258 5256 5253 5250 5247 5245 5243 5242 5240 5238 5237 5235 5234 5233 5232 5231 5230
5452 5451 5449 5448 5447 5445 5443 5442 5440 5438 5436 5434 5432 5430 5428 5426 5424 5421 5419 5416 5414 5411 5409 5407 5404 5402 5400 5397 5395 5393 5390 5387 5385 5382 5379 5376 5373 5370 5367 5364 5360 5357 5354 5351 5349 5345 5341 5337 5333 5329 5324 5319 5313 5307 5300 5294 5289 5284 5280 5277 5274 5272 5269 5266 5263 5260 5257 5254 5251 5248 5246 5243 5241 5239 5237 5235 5233 5232 5231 5229 5228 5227 5226 5225 5224
5441 5440 5438 5437 5435 5433 5432 5430 5428 5427 5425 5423 5421 5419 5417 5415 5413 5411 5409 5406 5404 5402 5400 5398 5396 5393 5391 5388 5386 5384 5381 5378 5376 5373 5370 5368 5365 5362 5359 5356 5352 5349 5346 5343 5340 5336 5333 5328 5324 5320 5316 5311 5306 5300 5294 5288 5282 5277 5273 5270 5267 5264 5261 5259 5256 5253 5250 5247 5244 5241 5239 5236 5234 5232 5230 5228 5227 5225 5224 5223 5222 5221 5220 5219 5218
5429 5428 5427 5425 5424 5422 5421 5419 5417 5415 5414 5412 5410 5409 5407 5405 5403 5401 5399 5397 5395 5393 5391 5388 5387 5384 5382 5380 5377 5375 5372 5370 5367 5364 5362 5359 5356 5354 5351 5348 5344 5341 5338 5335 5331 5327 5323 5319 5316 5311 5307 5302 5297 5292 5286 5281 5276 5271 5267 5263 5260 5257 5254 5251 5248 5246 5243 5240 5237 5234 5231 5229 5226 5225 5223 5221 5220 5219 5217 5216 5216 5215 5214 5213 5212
5418 5416 5415 5413 5412 5411 5409 5407 5406 5405 5403 5401 5400 5398 5396 5395 5393 5391 5390 5388 5386 5384 5381 5379 5377 5375 5373 5370 5368 5366 5364 5361 5358 5356 5353 5351 5348 5345 5343 5339 5336 5334 5330 5327 5323 5319 5315 5311 5307 5303 5298 5294 5289 5283 5279 5274 5269 5265 5261 5257 5253 5250 5247 5244 5241 5238 5236 5233 5230 5227 5225 5222 5220 5218 5217 5215 5214 5212 5211 5210 5209 5208 5208 5207 5206
5406 5405 5403 5402 5400 5399 5398 5396 5395 5393 5392 5391 5390 5388 5386 5385 5383 5382 5381 5379 5378 5375 5373 5371 5368 5366 5363 5362 5360 5357 5355 5353 5350 5348 5345 5342 5340 5337 5335 5332 5329 5326 5322 5319 5315 5311 5307 5303 5299 5294 5290 5285 5280 5275 5271 5266 5262 5258 5255 5251 5247 5244 5240 5237 5235 5232 5229 5227 5224 5222 5220 5217 5215 5213 5212 5210 5208 5207 5205 5204 5203 5202 5201 5201 5200